This demonstration page uses our WeatherBlox Daily Observations layout. Learn more.

Left ArrowRight Arrow

41.12389, -100.76542

Hourly Observations for August 17, 2022

Temp ( °F °C ) Dew Point ( °F °C ) Humidity (%) Winds ( mph kmh ) Pressure ( in mb ) Visibility ( mi km ) Precip ( " mm )
12:21 am 00:21 Cloudy with Light Rain 64 17.8 61 16.1 90 90 ESE 6 9 30.12 1020 9 14 0.01 0.13
12:53 am 00:53 Cloudy 64 17.8 61 16.1 90 90 Calm 30.15 1021 10 16 0.01 0.13
1:08 am 01:08 Cloudy 64 17.8 61 16.1 90 90 SE 5 7 30.12 1020 10 16 0.00 0.00
1:23 am 01:23 Cloudy with Mist and Fog 64 17.8 61 16.1 90 90 ESE 3 6 30.12 1020 6 10 0.01 0.13
1:44 am 01:44 Cloudy with Mist and Fog 64 17.8 61 16.1 90 90 ESE 5 7 30.12 1020 4 6 0.01 0.13
2:21 am 02:21 Cloudy 64 17.8 62 16.7 93 93 ESE 3 6 30.12 1020 7 11 0.00 0.00
2:38 am 02:38 Cloudy with Mist and Fog 64 17.8 62 16.7 93 93 Calm 30.12 1020 6 10 0.00 0.00
2:53 am 02:53 Cloudy 64 17.8 62 16.7 93 93 Calm 30.15 1021 7 11 0.00 0.00
3:10 am 03:10 Cloudy 64 17.8 62 16.7 93 93 Calm 30.12 1020 10 16 0.00 0.00
3:43 am 03:43 Cloudy 64 17.8 62 16.7 93 93 E 3 6 30.11 1020 10 16 0.00 0.00
3:53 am 03:53 Cloudy 64 17.8 62 16.7 93 93 E 3 6 30.15 1021 10 16 0.00 0.00
4:04 am 04:04 Cloudy 64 17.8 61 16.1 90 90 ESE 3 6 30.11 1020 10 16 0.00 0.00
4:36 am 04:36 Cloudy 64 17.8 62 16.7 93 93 Calm 30.11 1020 10 16 0.00 0.00
4:53 am 04:53 Cloudy 64 17.8 62 16.7 93 93 Calm 30.15 1021 10 16 0.00 0.00
5:27 am 05:27 Cloudy 65 18.3 62 16.7 90 90 Calm 30.12 1020 10 16 0.00 0.00
5:53 am 05:53 Cloudy 65 18.3 62 16.7 90 90 E 3 6 30.15 1021 10 16 0.00 0.00
6:53 am 06:53 Cloudy 64 17.8 62 16.7 93 93 ESE 5 7 30.16 1022 9 14 0.00 0.00
7:10 am 07:10 Cloudy with Mist and Fog 64 17.8 62 16.7 93 93 Calm 30.14 1021 6 10 0.00 0.00
7:33 am 07:33 Cloudy with Mist and Fog 64 17.8 62 16.7 93 93 ESE 3 6 30.14 1021 4 6 0.01 0.13
7:53 am 07:53 Cloudy 64 17.8 62 16.7 93 93 SSE 3 6 30.18 1022 8 13 0.01 0.13
8:53 am 08:53 Mostly Cloudy 66 18.9 61 16.1 84 84 ESE 3 6 30.18 1022 10 16 0.00 0.00
9:06 am 09:06 Mostly Cloudy 66 18.9 61 16.1 84 84 E 5 7 30.14 1021 10 16 0.00 0.00
9:53 am 09:53 Cloudy 68 20 62 16.7 81 81 ESE 5 7 30.18 1022 10 16 0.00 0.00
10:53 am 10:53 Cloudy 69 20.6 61 16.1 75 75 SW 5 7 30.18 1022 10 16 0.00 0.00
11:03 am 11:03 Cloudy 69 20.6 61 16.1 75 75 SW 3 6 30.11 1020 10 16 0.00 0.00
11:13 am 11:13 Cloudy 70 21.1 62 16.7 76 76 S 5 7 30.11 1020 10 16 0.00 0.00
11:53 am 11:53 Cloudy 72 22.2 61 16.1 68 68 SSE 8 13 30.17 1022 10 16 0.00 0.00
12:53 pm 12:53 Cloudy 75 23.9 59 15 57 57 SSE 8 13 30.15 1021 10 16 0.00 0.00
1:53 pm 13:53 Cloudy 75 23.9 60 15.6 60 60 SSE 8 13 30.14 1021 10 16 0.00 0.00
2:53 pm 14:53 Cloudy 75 23.9 59 15 57 57 S 6 9 30.14 1021 10 16 0.00 0.00
3:53 pm 15:53 Mostly Cloudy 79 26.1 58 14.4 49 49 S 8 13 30.12 1020 10 16 0.00 0.00
4:53 pm 16:53 Mostly Cloudy 79 26.1 59 15 50 50 SSE 8 13 30.10 1019 10 16 0.00 0.00
5:53 pm 17:53 Mostly Sunny 79 26.1 59 15 50 50 S 8 13 30.08 1019 10 16 0.00 0.00
6:53 pm 18:53 Sunny 79 26.1 57 13.9 47 47 S 8 13 30.07 1018 10 16 0.00 0.00
7:53 pm 19:53 Sunny 75 23.9 57 13.9 54 54 SSW 8 13 30.08 1019 10 16 0.00 0.00
8:53 pm 20:53 Clear 72 22.2 57 13.9 59 59 Calm 30.09 1019 10 16 0.00 0.00
9:53 pm 21:53 Clear 63 17.2 58 14.4 84 84 SE 5 7 30.12 1020 10 16 0.00 0.00
10:53 pm 22:53 Clear 63 17.2 58 14.4 84 84 SE 3 6 30.10 1019 10 16 0.00 0.00
11:53 pm 23:53 Clear 62 16.7 58 14.4 86 86 E 3 6 30.09 1019 10 16 0.00 0.00

Powered by AerisWeather